Theta_e
309 309 309 309 309 309 309 309 309 310 311 311 312 312 313 313 313 312 311 314 314 313 313 314 314 315 315 314 314 308 309 310 313 313 314 313 313 312 310 312 310 312 312 311 314
309 309 310 310 310 309 309 310 311 312 313 314 314 314 314 314 313 314 315 315 313 313 314 314 313 314 311 315 314 309 307 309 310 313 315 314 313 313 312 310 311 311 309 312 314
309 309 310 310 310 311 311 312 313 316 317 317 316 316 315 313 313 313 314 314 313 312 314 314 314 314 314 314 316 313 311 311 314 312 314 314 312 311 312 312 309 311 309 307 311
310 310 311 311 312 314 315 317 317 318 319 319 318 317 315 313 316 312 312 311 311 311 315 314 312 314 313 314 313 317 314 313 315 314 313 313 312 313 311 312 311 308 307 305 303
313 313 313 313 314 315 317 319 320 320 321 320 319 316 313 314 313 315 312 311 310 311 314 312 312 312 313 313 312 314 313 312 312 310 310 311 311 311 310 309 306 305 304 303 302
315 315 314 314 314 316 318 320 321 321 321 320 318 315 312 311 315 316 315 312 311 312 313 312 311 310 312 312 312 311 311 310 309 310 310 311 310 311 310 309 305 304 303 302 301
316 315 315 314 315 317 319 321 322 322 322 320 314 312 315 310 313 315 313 312 312 313 312 312 312 312 311 312 311 311 311 309 309 310 310 308 312 311 309 307 304 303 302 301 300
316 316 315 315 316 318 320 322 322 322 321 314 310 313 310 312 313 314 314 314 314 313 313 313 312 311 312 311 309 311 310 310 311 311 311 310 312 311 308 307 303 302 300 300 299
317 316 316 316 317 319 321 322 322 321 316 313 314 314 312 308 311 311 313 311 312 311 311 312 311 309 309 308 307 308 310 309 310 311 311 310 311 310 308 306 305 300 299 299 297
317 316 316 317 318 320 322 322 321 316 314 314 315 314 311 309 309 309 311 312 310 309 309 309 305 307 306 306 311 310 310 309 310 311 310 311 309 309 305 304 302 299 298 297 297
317 316 316 317 318 321 322 321 317 317 317 315 312 312 310 309 309 309 310 310 310 308 308 309 306 307 308 307 308 309 309 310 309 309 311 310 309 308 304 302 301 299 298 297 296
317 317 317 318 319 322 321 318 317 317 320 316 315 311 313 310 311 309 310 309 310 310 308 309 308 308 307 307 308 309 311 310 309 309 309 309 309 304 303 302 300 298 297 296 295
317 317 317 319 321 321 321 319 317 316 318 317 316 317 315 311 317 313 308 307 310 309 309 310 312 310 309 309 311 311 311 311 312 310 308 307 308 307 303 300 299 297 296 296 295
318 317 318 320 321 321 319 320 318 315 319 318 317 314 310 314 316 308 308 308 309 311 308 309 309 312 311 312 312 315 311 312 312 310 312 307 312 309 305 302 299 297 295 295 294
319 318 319 319 321 318 321 320 317 313 327 317 313 307 307 315 309 308 307 308 311 312 310 314 311 312 313 312 311 314 309 309 309 308 308 308 309 307 304 304 300 298 296 295 294
320 319 320 321 321 321 319 318 315 322 329 315 308 308 309 307 308 306 307 307 308 310 309 311 307 308 311 308 309 307 309 308 306 306 311 309 310 310 307 306 301 298 296 295 293
320 320 321 321 321 322 316 317 324 328 318 313 309 307 307 306 307 307 308 308 309 311 311 310 310 308 309 311 308 308 312 316 312 311 315 309 309 309 305 302 301 298 295 294 292
322 321 322 321 321 322 315 323 326 324 322 310 310 307 308 306 307 307 307 309 307 310 311 315 318 309 309 310 311 309 312 313 308 314 313 310 316 314 301 299 298 296 294 293 292
323 321 321 320 322 320 321 328 325 323 319 313 312 311 311 311 308 308 308 308 309 308 317 316 317 308 307 307 310 309 311 309 311 299 311 312 310 305 300 298 297 296 294 293 292
319 318 319 320 321 317 324 326 324 320 317 313 315 314 313 316 314 308 308 309 313 308 311 313 316 311 308 308 305 309 307 313 309 308 308 310 311 311 303 300 297 296 295 294 292
315 315 314 318 318 320 326 325 322 315 315 317 316 319 317 319 315 311 314 313 311 308 310 311 312 312 310 310 310 308 309 308 310 306 305 304 308 304 305 301 298 296 295 294 293
311 317 311 312 319 317 324 318 316 313 314 316 315 316 316 313 317 317 317 314 306 310 313 311 310 308 312 308 306 307 308 307 312 309 307 309 310 303 303 301 298 297 296 294 293
312 310 309 310 321 317 314 316 316 316 317 317 318 316 315 317 319 312 310 309 309 310 312 311 309 305 308 307 307 309 308 306 306 304 305 308 309 302 300 298 297 297 296 295 293
308 312 308 309 310 312 314 315 316 311 312 314 315 311 311 312 315 312 309 310 307 310 309 309 306 307 313 307 306 308 308 306 302 301 304 310 307 303 302 300 298 297 295 294 293
304 310 308 311 310 311 313 311 314 312 309 310 310 312 313 312 310 309 310 308 306 307 305 308 308 305 304 304 304 304 304 305 304 305 306 306 305 303 302 300 298 295 293 294 290
304 304 303 306 310 311 312 310 312 313 311 311 310 310 311 312 310 310 309 308 308 304 306 301 302 301 305 301 303 305 303 304 304 304 303 303 304 302 296 296 294 293 292 294 290
296 297 303 305 307 312 310 310 310 311 308 307 309 309 309 309 304 301 301 302 304 305 304 301 300 301 309 295 295 299 297 300 301 300 302 304 302 289 293 292 292 291 288 291 290
Wind_Speed
4 3 3 3 3 4 5 5 6 7 8 8 9 11 13 15 15 11 4 2 1 3 3 6 3 2 3 3 3 3 4 2 3 4 3 4 6 5 2 3 3 3 1 5 10
6 6 5 5 6 6 6 6 6 7 9 10 11 12 13 15 15 8 2 3 3 4 4 4 2 3 3 2 3 4 3 7 4 3 3 3 1 2 5 6 3 3 7 5 6
8 8 7 7 7 7 7 7 7 9 10 11 11 12 11 12 5 2 2 5 4 6 3 4 5 3 2 2 1 3 4 4 3 5 1 2 4 3 2 6 8 5 7 10 9
11 10 9 9 7 7 6 7 7 9 11 12 12 12 9 5 3 1 2 3 6 9 5 3 3 3 2 2 1 1 5 4 3 2 2 3 4 4 6 9 1 6 4 6 9
11 11 10 9 8 7 7 7 9 10 12 13 12 10 4 2 7 2 2 3 5 10 5 4 3 4 3 3 1 3 3 3 6 7 5 1 9 5 10 12 6 6 11 9 8
13 12 11 10 9 8 8 8 10 12 13 12 10 6 0 4 2 2 2 4 6 9 6 6 6 5 3 3 3 2 3 6 7 6 4 5 5 3 6 1 10 9 9 8 10
15 14 13 11 10 9 9 9 11 13 13 12 9 3 1 10 3 2 3 3 5 6 3 4 4 3 3 1 1 1 5 7 6 2 5 6 3 6 7 6 8 9 8 9 12
16 15 14 12 11 10 10 10 12 14 12 8 4 3 6 4 5 5 4 3 4 4 3 4 4 3 1 1 6 2 3 3 2 2 1 4 8 6 5 6 8 8 7 8 11
18 16 15 13 12 11 11 12 14 13 5 1 1 1 7 2 4 6 6 5 7 5 4 4 3 3 4 5 4 4 3 5 8 1 2 2 5 10 4 9 6 7 7 8 10
19 18 16 13 12 11 12 12 10 5 2 2 0 2 3 4 5 6 6 10 4 5 4 5 5 3 3 4 5 6 5 5 6 1 3 3 9 11 10 8 8 7 7 9 11
20 18 16 14 11 10 10 5 2 1 4 9 5 3 3 3 6 4 6 6 4 4 5 1 3 7 13 11 2 3 4 5 4 4 3 6 8 4 5 9 8 7 8 8 9
22 20 17 14 11 9 8 3 4 2 6 12 6 5 3 6 3 4 10 5 4 6 6 3 7 12 4 4 4 3 3 6 6 4 5 7 10 6 7 5 5 7 7 6 5
24 22 18 14 11 11 10 8 3 1 2 6 6 5 5 10 6 8 11 4 5 6 8 8 6 3 8 5 5 4 5 5 7 3 1 4 7 4 4 7 8 7 6 6 5
27 24 20 13 7 11 7 14 7 3 3 6 5 5 4 6 4 1 10 5 2 10 7 6 4 5 4 5 7 3 7 3 3 2 2 2 4 3 5 5 4 4 5 6 5
30 28 24 24 4 7 5 14 11 2 6 1 3 4 3 6 5 1 1 3 7 6 6 7 5 5 4 6 6 6 4 4 2 3 3 3 1 6 6 4 4 5 5 5 4
34 31 27 26 23 8 11 18 7 4 11 4 4 6 5 3 3 3 2 3 2 4 2 6 2 5 8 3 6 5 4 5 4 3 0 7 7 4 5 4 6 5 6 6 5
40 36 36 27 10 25 21 8 4 8 1 6 6 6 4 6 4 5 6 5 6 6 6 1 3 1 2 5 3 4 5 2 3 2 5 3 4 7 4 5 9 13 9 8 6
42 39 40 35 29 25 20 5 10 9 9 4 5 4 8 8 5 7 7 6 6 2 4 6 3 8 4 5 6 6 7 5 6 3 4 4 6 4 2 4 9 9 8 7 7
39 42 30 34 36 36 8 11 10 7 7 10 4 4 5 5 5 5 8 6 8 11 7 5 4 1 2 2 4 4 4 4 6 2 1 4 4 1 4 4 6 8 7 8 8
18 14 21 30 41 28 11 16 7 5 7 5 10 6 9 7 7 8 9 5 5 10 2 5 2 2 3 4 3 4 6 3 2 1 4 5 6 5 8 10 7 8 10 8 8
8 1 5 29 36 7 11 8 6 4 4 6 9 6 6 8 8 6 6 1 4 5 5 6 3 1 3 6 8 2 2 4 3 5 5 2 5 4 11 13 15 13 10 10 8
7 4 6 8 8 2 12 7 5 6 2 4 4 3 7 7 6 7 9 6 8 8 9 6 5 4 8 1 3 2 7 7 5 6 3 2 9 4 6 11 11 10 10 7 7
5 2 2 1 5 4 3 3 4 6 4 4 5 4 2 6 3 2 3 2 3 7 9 8 2 2 6 3 2 4 4 3 5 4 7 5 6 3 4 7 9 9 8 7 8
4 4 1 2 2 4 4 3 4 2 2 3 2 5 4 5 9 8 8 2 2 2 4 5 3 7 10 6 5 4 5 5 5 4 5 14 7 2 3 7 6 7 6 7 7
0 4 3 6 7 9 8 8 7 4 3 10 5 11 12 6 5 8 4 3 2 3 3 5 7 4 2 2 3 4 6 10 8 8 10 6 11 4 8 9 10 8 5 5 6
2 4 1 1 4 17 12 9 14 12 9 7 10 12 11 10 9 8 6 3 5 2 4 2 2 2 2 1 2 4 6 8 7 5 7 8 18 8 4 6 6 8 6 7 8
2 3 2 4 2 11 9 18 16 12 4 3 9 5 10 10 5 4 5 4 6 8 6 6 6 4 7 3 2 8 10 15 7 8 9 14 16 3 5 7 8 8 7 8 7
Wind_Direction
260 270 277 288 294 298 306 313 317 321 323 325 324 324 324 322 322 314 267 183 123 170 164 152 132 75 40 63 58 114 64 196 234 178 263 325 10 319 263 242 356 295 268 312 318
267 268 273 279 284 289 293 297 307 316 320 323 322 321 325 326 325 289 210 185 161 178 169 154 108 59 35 35 29 87 120 219 217 183 237 297 260 355 338 330 292 306 314 331 326
261 266 271 275 281 286 293 300 310 320 322 319 318 315 320 329 340 257 186 193 193 176 154 120 87 65 47 41 194 160 195 207 254 235 217 265 287 169 221 296 232 266 312 325 315
261 262 268 273 281 288 299 310 314 316 318 318 317 315 317 336 296 204 169 169 177 173 142 141 75 99 117 235 211 250 247 225 265 184 346 271 301 298 210 242 203 27 317 1 24
264 264 267 271 271 281 291 306 311 315 318 318 315 315 321 10 254 225 208 207 185 180 171 137 139 140 177 208 171 208 277 292 271 288 250 278 249 233 264 268 30 82 55 42 38
264 267 267 267 271 277 287 299 307 315 320 316 311 307 128 237 239 221 247 202 193 175 176 156 187 189 168 208 174 198 269 273 276 264 263 234 268 153 280 349 66 76 59 47 40
262 264 264 261 263 267 277 290 304 311 315 311 307 246 152 241 228 205 156 169 174 186 145 180 186 129 129 216 279 246 317 323 268 265 209 163 292 233 245 20 57 72 52 42 33
257 260 261 260 261 268 275 287 300 307 309 316 292 168 244 245 209 207 188 153 154 159 136 131 141 108 117 83 15 12 42 324 266 165 50 145 260 273 329 10 83 78 55 42 29
255 255 255 256 260 269 277 290 301 302 287 306 88 152 265 187 198 190 177 155 134 120 112 126 102 102 49 95 2 4 232 217 315 198 123 143 273 273 351 10 42 66 51 42 30
252 249 247 246 256 271 279 295 300 289 217 227 256 360 236 218 165 159 160 149 124 104 47 57 55 86 54 110 222 206 220 245 240 158 31 283 250 272 342 32 89 79 61 51 41
247 243 241 243 249 270 293 292 296 284 210 194 191 237 128 133 138 152 155 125 99 74 156 25 120 207 203 201 172 151 186 231 264 267 344 257 257 334 21 64 77 69 66 59 44
241 237 235 238 245 258 277 235 234 137 295 234 225 269 220 179 126 198 167 146 150 180 119 65 224 232 144 171 211 251 238 262 281 271 172 289 281 72 37 52 77 88 75 68 55
235 233 230 230 243 254 227 234 230 166 260 283 199 184 192 170 213 201 160 151 165 160 190 179 215 151 175 164 167 215 192 218 228 335 286 331 291 163 59 80 78 69 74 51 46
232 227 221 216 241 225 226 227 204 168 277 250 217 236 127 133 243 163 178 146 194 200 160 236 242 176 170 186 158 241 214 212 190 95 227 31 278 309 138 100 65 74 76 90 71
230 224 212 203 196 185 217 183 171 116 283 204 160 134 142 162 128 312 158 60 168 175 133 237 173 165 185 218 157 228 148 148 119 117 70 288 304 263 117 174 177 163 136 123 101
229 222 210 209 222 206 184 159 148 74 238 216 137 167 133 155 147 123 122 48 150 148 209 234 247 182 193 123 156 137 111 69 64 103 262 233 180 263 193 203 169 176 166 162 144
227 219 210 204 205 207 171 155 163 209 128 197 187 167 167 158 167 156 159 174 169 141 211 212 223 201 174 94 55 88 70 321 338 355 227 131 133 245 296 297 186 168 170 175 166
225 218 217 210 205 202 173 178 210 192 205 128 132 113 178 158 199 169 140 190 236 206 121 166 242 167 190 182 177 176 160 162 220 200 282 319 231 258 320 341 128 140 160 168 178
238 220 212 214 208 193 198 203 220 176 174 146 108 145 220 202 148 140 189 202 200 183 172 149 265 105 100 92 131 185 177 165 106 50 48 249 293 219 93 88 123 155 175 193 197
223 214 215 203 204 185 205 213 219 194 135 149 173 169 179 188 158 182 175 202 202 185 195 200 120 206 147 103 21 158 163 87 22 162 249 277 274 226 198 195 190 195 203 201 208
165 134 236 193 182 203 213 211 200 219 162 156 194 154 184 169 182 192 196 233 190 158 124 136 119 242 109 189 181 131 180 73 126 145 180 257 256 237 192 183 191 203 208 207 202
139 197 181 198 191 179 219 159 182 151 234 151 111 142 168 163 171 202 197 214 155 151 159 182 143 178 201 116 302 214 187 159 187 234 244 163 260 354 176 187 181 198 212 215 202
151 138 165 166 222 200 121 167 211 157 174 141 144 197 171 140 96 269 219 24 159 161 163 175 203 71 344 13 0 213 203 148 105 66 201 178 263 32 79 152 192 196 212 222 215
137 153 261 156 106 140 171 211 191 278 115 118 206 138 144 161 192 192 203 170 35 151 59 132 145 168 226 191 137 183 206 178 141 149 184 230 257 205 199 213 203 217 220 244 223
170 169 203 168 216 212 184 186 198 169 220 185 192 201 184 176 177 196 166 138 70 90 79 149 208 149 27 99 126 194 193 178 188 208 202 217 229 195 200 206 210 222 242 215 204
244 135 264 107 196 177 188 207 203 200 165 201 229 198 189 193 186 196 131 156 188 79 136 28 153 103 222 321 309 273 201 221 219 225 256 258 264 268 169 216 230 241 245 225 219
68 27 269 133 197 183 200 196 211 195 191 153 215 137 197 215 120 81 71 105 148 157 161 137 134 123 238 67 62 285 218 206 199 207 215 232 246 153 185 202 218 228 220 218 210